ONEWEB-0230, 48769

Orbit data source: Space-Track

ONEWEB-0230, 48769 is a payload satellite owned by One Web (NAA) (UK) in LEO that was launched on Fri, 28 May 2021 UTC via a SOYUZ-2-1B launch vehicle from the Vostochny Cosmodrome (VOSTO). Payload-class satellites include a variety of spacecraft equipped with specific instruments for various scientific and technological missions. These include communications satellites like Starlink; space stations such as the ISS; scientific satellites like the Hubble; Earth observation satellites from companies like Planet Labs, Umbra, and HawkEye 360; GPS; miniature CubeSats for education and research; and military/defense satellites.

Loading next visibility...
Identifier
48769, 2021-045C
Orbit
LEO
Country
Flag of UKUK
Related business
Manufacturer
One Web
Mission
Operational Commercial Communications
Bus & Motor
ARROW, Unknown motor
Mass
148 kg wet, ~140 kg dry
Launch date (UTC)
2021-05-28 (5 years ago)
Launch vehicle
SOYUZ-2-1B
Launch site
Vostochny Cosmodrome (VOSTO)
Object type
Payload
Rocket body
Debris
Shape & HBR
Trap Box + 2 Pan, 6.7 m
Radar Cross Section
3.464 m², Large (>1 m²)

Expand to show TLE details & history
Last TLE update: 2 days ago

TLE from 2 days ago
0 ONEWEB-0230
1 48769U 21045C   26171.28309795 -.00000011  00000-0 -63698-4 0  9996
2 48769  87.9000 258.5869 0001997  95.4119 264.7239 13.15548500245071
Epoch: 2026-06-20T06:47Z
TLE epoch observation values (Epoch: 2026-06-20T06:47:39.662Z)
Latitude
-0.00006°
Longitude
-111.82831°
Altitude
1,204.806 km
Speed
7.252 km/s
True Right ascension
17h 14m 20s
True Declination
0° 00' 00"
Sunlit
Object was in full shadow at epoch
Visualization orbit readout
Latitude
Unknown
Longitude
Unknown
Altitude
Unknown
Speed
Unknown
Apparent Right ascension
Unknown
Apparent Declination
Unknown
Sunlit
N/A
Visualization observer readout
Local Sidereal Time
21:35:48
Azimuth
Unknown
Elevation
Unknown
Doppler factor
Unknown
Orbital elements
Apogee altitude
1,200.396 km
Perigee altitude
1,197.37 km
Semi-major axis
7,577.02 km
Eccentricity
0.0002
Inclination
87.9°
RAAN
258.5869°
Arg. of periapsis
95.4119°
True anomaly
264.70111°
Mean anomaly
264.7239°
Eccentric anomaly
264.71251°
Mean motion
3.29075 °/min
Orbital period
109.4 mins
BSTAR
-0.000063698
Loading maneuver chart data...
Computing Atmospheric mass density...
Loading historical data...
Loading historical data...
Loading historical data...
Loading historical data...
Loading historical data...
Loading historical data...
Loading historical data...

Documentation

Showing up to 5 results
|